www.pogodaiklimat.ru

Погода и климат >> Архив погоды >> Франция >> Кан


ПОГОДА в Кане

  • Прогноз погоды в Кане
  • Монитор погоды в Кане

АРХИВ ПОГОДЫ в Кане

Время (UTC), дата Ветер
(напр.,м/с)
 
Видим.   Явления Облачность Т
(С)
Тd
(С)
f
(%)
Тe
(С)
Тes
(С)
Комфортность P
(гПа)
Po
(гПа)
Тmin
(С)
Tmax
(С)
R
(мм)
R24
(мм)
S
(см)
01 10.06 С 2 11 км 10/9 240 м
[]
+11.0 +10.5 97 +10 +10 1018.1 1010.0 0.2
02 10.06 СЗ 2 5000 м слаб. дождь 10/10 240 м
[]
+10.7 +10.4 98 +10 +10 1017.2 1009.1 0.2
03 10.06 СЗ 3
{5}
12 км 10/10 100 м
[]
+10.4 +10.1 98 +8 +8 1016.9 1008.8 0.6 0
04 10.06 СЗ 2 5000 м дождь 10/9 360 м
[]
+10.2 +9.9 98 +9 +9 1016.6 1008.5 0.4
05 10.06 З 2 5000 м слаб. дождь 10/10 360 м
[]
+10.1 +9.9 99 +9 +9 1016.4 1008.3 0.8
06 10.06 З 4
{5}
5000 м слаб. дождь 10/10 300 м
[]
+10.3 +10.0 98 +8 +8 1016.5 1008.4 +10.1 +13.3 2 0
07 10.06 З 2 6000 м слаб. дождь 10/10 1350 м
[]
+10.4 +9.9 97 +9 +9 1016.4 1008.3 1
08 10.06 З 2 13 км слаб. дождь 10/10 1500 м
[]
+11.0 +10.2 95 +10 +10 1016.3 1008.2 0.8
09 10.06 З 6
{8}
18 км слаб. дождь 10/10 600 м
[]
+11.5 +10.4 93 +9 +9 1015.8 1007.7 2 0
10 10.06 СЗ 3 19 км 10/4 450 м
[]
+12.5 +10.2 86 +11 +15 1015.9 1007.8 0.4
11 10.06 СЗ 2 40 км 10/9 630 м
[]
+13.8 +9.4 75 +13 +14 1015.2 1007.2
12 10.06 СЗ 5
{8}
60 км 10/10 600 м
[]
+13.7 +9.3 75 +12 +12 1015.1 1007.1 0.4 0
13 10.06 З 3 35 км слаб. дождь 10/10 1500 м
[]
+12.3 +9.3 82 +11 +11 1015.3 1007.2 0.0
14 10.06 З 3 35 км 10/10 1500 м
[]
+13.8 +10.4 80 +13 +13 1014.8 1006.8 0.0
15 10.06 З 4
{7}
45 км 10/10 1500 м
[]
+12.6 +9.2 80 +11 +11 1014.6 1006.6 0.0 0
16 10.06 З 2 50 км 8/1 1300 м
[]
+12.2 +8.8 80 +11 +16 1014.3 1006.2 0.0
17 10.06 ЮЗ 2 45 км н/о +13.3 +9.4 77 +13 +13 1013.9 1005.9
18 10.06 З 3
{6}
60 км 9/9 1500 м
[]
+14.3 +9.5 73 +13 +14 1013.5 1005.5 +10.2 +14.3 0.0 0
19 10.06 З 2 30 км н/о +11.6 +9.2 85 +11 +11 1013.6 1005.5
20 10.06 З 2 30 км 9/3 660 м
[]
+10.8 +8.9 88 +10 +10 1013.6 1005.5
21 10.06 ЮЗ 2
{3}
19 км 10/0 2000 м
[]
+10.0 +8.9 93 +8 +8 1013.9 1005.8 0
22 10.06 ЮЗ 2 16 км н/о +8.4 +7.6 95 +7 +7 1013.5 1005.3
23 10.06 ЮЗ 2 10 км н/о +8.8 +8.3 97 +7 +7 1012.7 1004.6
00 11.06 Ю 3
{5}
10 км н/о +7.7 +7.4 98 +5 +5 1012.5 1004.3 0
01 11.06 ЮЗ 2 9000 м н/о +7.2 +6.8 97 +5 +5 1012.0 1003.8
02 11.06 Ю 2 13 км 10/9 450 м
[]
+8.5 +8.2 98 +7 +7 1011.5 1003.4
03 11.06 Ю 2
{5}
14 км 10/10 600 м
[]
+8.8 +8.3 97 +7 +7 1011.1 1003.0 0.2 0
04 11.06 Ю 1 14 км н/о +7.8 +7.4 97 +7 +7 1010.7 1002.5
05 11.06 Ю 2 11 км н/о +8.6 +8.5 99 +7 +7 1010.4 1002.3
06 11.06 Ю 6
{7}
9000 м 10/10 100 м
[]
+9.1 +8.6 97 +5 +5 1010.8 1002.7 +7.0 +14.4 0.2 0
07 11.06 Ю 3 18 км 10/10 210 м
[]
+10.9 +9.8 93 +9 +9 1010.6 1002.5
08 11.06 Ю 3 30 км н/о +12.8 +9.4 80 +11 +11 1010.3 1002.3
09 11.06 ЮЗ 5
{9}
30 км н/о +14.8 +9.4 70 +13 +13 1010.4 1002.4 0
10 11.06 Ю 2 60 км 9/9 960 м
[]
+14.8 +7.8 63 +15 +16 1010.8 1002.8
11 11.06 Ю 2 60 км 10/10 1000 м
[]
+15.2 +8.2 63 +15 +15 1010.8 1002.9
12 11.06 ЮВ 2
{6}
55 км 9/9 1000 м
[]
+15.6 +8.1 61 +16 +17 1010.7 1002.8 0
13 11.06 ЮВ 2 55 км н/о +17.0 +8.4 57 +18 +18 1010.7 1002.8 0.0
14 11.06 ЮВ 2 19 км 8/5 1320 м
[]
+17.4 +9.0 58 +18 +24 1010.6 1002.7
15 11.06 СВ 4
{9}
50 км 10/10 1000 м
[]
+16.5 +9.4 63 +16 +16 1010.4 1002.5 0.0 0
16 11.06 С 3 29 км 8/4 1470 м
[]
+15.0 +10.8 76 +14 +17 1010.6 1002.7
17 11.06 СВ 3 55 км 9/6 960 м
[]
+15.3 +11.1 76 +15 +16 1010.4 1002.5 0.0
18 11.06 СЗ 2
{8}
35 км 10/10 300 м
[]
+13.9 +11.8 87 +14 +14 1010.4 1002.4 +9.1 +18.4 2 0
19 11.06 Ю 1 55 км н/о +12.6 +10.0 84 +13 +13 1011.0 1003.0
20 11.06 СВ 1 35 км 10/10 1500 м
[]
+12.7 +10.2 85 +14 +14 1011.2 1003.2
21 11.06 штиль 0
{2}
35 км слаб. дождь 10/10 1500 м
[]
+12.3 +10.7 90 +12 +12 1011.2 1003.2 0.2 0
22 11.06 В 1 45 км 10/10 1500 м
[]
+12.3 +10.7 90 +13 +13 1010.9 1002.9 0.0
23 11.06 В 1 55 км 10/10 1500 м
[]
+12.0 +10.6 91 +12 +12 1010.7 1002.7 0.0
00 12.06 В 1
{3}
55 км 10/10 1500 м
[]
+11.7 +9.9 89 +11 +11 1010.2 1002.2 0.0 0
01 12.06 штиль 0 55 км 9/4 1440 м
[]
+11.4 +10.1 92 +11 +11 1009.8 1001.8
02 12.06 В 1 35 км 10/1 1320 м
[]
+10.9 +10.3 96 +10 +10 1009.6 1001.5
03 12.06 В 1
{3}
22 км 10/10 600 м
[]
+11.1 +10.5 96 +11 +11 1008.9 1000.9 0
04 12.06 ЮВ 1 14 км 10/10 1500 м
[]
+10.6 +10.1 97 +10 +10 1008.9 1000.8
05 12.06 ЮВ 2 14 км 9/9 2000 м
[]
+10.9 +10.3 96 +9 +9 1009.0 1001.0
06 12.06 В 2
{5}
19 км 10/10 200 м
[]
+11.5 +10.1 91 +10 +10 1009.1 1001.1 +10.2 +13.8 0.2 0
07 12.06 ЮВ 2 22 км 10/4 210 м
[]
+12.2 +11.1 93 +11 +13 1009.0 1001.0
08 12.06 ЮВ 2 20 км 10/9 240 м
[]
+11.9 +10.5 91 +11 +11 1008.9 1000.9 0.2
09 12.06 ЮВ 4
{6}
22 км 10/10 300 м
[]
+12.9 +10.6 86 +11 +11 1008.9 1000.9 0.2 0
10 12.06 ЮВ 2 30 км 10/10 450 м
[]
+14.3 +10.7 79 +14 +14 1008.5 1000.6
11 12.06 В 2 50 км 8/8 800 м
[]
+16.0 +10.1 68 +16 +19 1008.4 1000.5
12 12.06 ЮВ 3
{7}
50 км н/о +17.2 +9.9 62 +17 +17 1008.2 1000.3 0
13 12.06 В 1 55 км 9/6 1110 м
[]
+17.7 +8.8 56 +19 +24 1007.9 1000.0
14 12.06 ЮВ 1 19 км 10/1 1350 м
[]
+17.5 +10.1 62 +19 +26 1007.8 999.9
15 12.06 СВ 4
{7}
12 км дождь 10/10 600 м
[]
+14.5 +12.2 86 +13 +13 1008.0 1000.1 0.2 0
16 12.06 С 1 20 км 10/6 570 м
[]
+13.7 +11.2 85 +15 +17 1008.6 1000.6 2
17 12.06 З 3 40 км 10/9 570 м
[]
+13.0 +10.5 85 +12 +12 1008.6 1000.6 0.0
18 12.06 З 3
{7}
55 км 10/10 1000 м
[]
+13.9 +10.9 82 +13 +13 1008.5 1000.5 +11.4 +17.9 2 0
19 12.06 ЮЗ 1 45 км н/о +13.3 +10.1 81 +13 +13 1008.5 1000.5
20 12.06 З 2 30 км н/о +11.3 +9.7 90 +10 +10 1009.1 1001.1
21 12.06 ЮЗ 2
{3}
27 км 9/0 2000 м
[]
+10.1 +9.6 97 +9 +9 1009.7 1001.6 0
22 12.06 Ю 2 28 км 8/8 720 м
[]
+10.4 +9.6 95 +9 +9 1009.7 1001.6
23 12.06 ЮЗ 2 23 км н/о +10.0 +9.5 97 +9 +9 1009.8 1001.7
00 13.06 ЮЗ 4
{5}
22 км 10/10 1500 м
[]
+10.7 +9.9 95 +8 +8 1009.7 1001.6 0
01 13.06 ЮЗ 2 19 км 10/10 2000 м
[]
+10.9 +10.0 94 +10 +10 1009.5 1001.4
02 13.06 ЮЗ 2 16 км 10/1 660 м
[]
+11.1 +10.0 93 +10 +10 1009.3 1001.3
03 13.06 Ю 2
{6}
13 км 10/0 2000 м
[]
+9.9 +9.3 96 +9 +9 1009.0 1000.9 0
04 13.06 Ю 1 21 км н/о +10.0 +9.1 94 +9 +9 1009.1 1001.0
05 13.06 Ю 1 17 км 9/9 2000 м
[]
+10.7 +9.9 95 +10 +10 1009.2 1001.1
06 13.06 Ю 4
{6}
18 км 10/10 300 м
[]
+11.8 +10.4 91 +10 +10 1009.0 1001.0 +9.5 +14.0 0
07 13.06 Ю 3 22 км 10/6 400 м
[]
+12.9 +11.0 88 +12 +12 1009.2 1001.2
08 13.06 Ю 3 45 км 10/10 480 м
[]
+14.2 +11.0 81 +13 +13 1009.3 1001.3
09 13.06 ЮЗ 5
{9}
22 км 10/10 600 м
[]
+12.9 +11.8 93 +11 +11 1009.6 1001.6 2 0
10 13.06 ЮЗ 4 35 км 10/4 1110 м
[]
+13.6 +11.1 85 +12 +15 1009.6 1001.6 0.6
11 13.06 ЮЗ 4 35 км 8/5 750 м
[]
+16.3 +11.4 73 +16 +20 1009.4 1001.5
12 13.06 Ю 5
{12}
35 км 8/8 1000 м
[]
+15.9 +12.1 78 +15 +17 1009.5 1001.6 0.6 0
13 13.06 ЮЗ 5 30 км 8/6 1000 м
[]
+16.5 +9.9 65 +16 +19 1009.4 1001.5
14 13.06 ЮЗ 3 30 км 10/10 1300 м
[]
+15.3 +11.1 76 +15 +15 1009.7 1001.8 0.2
15 13.06 ЮЗ 6
{11}
40 км 10/10 1000 м
[]
+14.9 +9.7 71 +13 +13 1009.9 1002.0 0.2 0
16 13.06 ЮЗ 3 45 км 9/9 1500 м
[]
+16.8 +11.3 70 +17 +17 1009.7 1001.8
17 13.06 ЮЗ 3 35 км н/о +17.0 +9.9 63 +17 +17 1009.8 1001.9
18 13.06 З 4
{8}
55 км 10/10 1000 м
[]
+15.6 +10.4 71 +15 +15 1010.4 1002.5 +11.8 +17.9 0
19 13.06 ЮЗ 2 60 км 10/10 2000 м
[]
+15.3 +10.5 73 +15 +15 1010.7 1002.8
20 13.06 ЮЗ 1 45 км н/о +12.9 +10.1 83 +13 +13 1011.0 1003.0
21 13.06 ЮЗ 2
{3}
50 км н/о +12.0 +9.6 85 +11 +11 1011.6 1003.6 0
22 13.06 Ю 2 40 км н/о +10.8 +9.2 90 +10 +10 1011.8 1003.7
23 13.06 ЮЗ 1 45 км н/о +9.8 +8.7 93 +9 +9 1012.0 1003.9
00 14.06 ЮЗ 3
{4}
45 км н/о +9.3 +8.2 93 +7 +7 1012.0 1003.9 0
01 14.06 Ю 2 55 км н/о +8.9 +8.1 95 +7 +7 1011.9 1003.8
02 14.06 ЮЗ 2 50 км н/о +9.4 +8.2 92 +8 +8 1011.9 1003.8
03 14.06 Ю 4
{5}
40 км н/о +8.9 +8.3 96 +6 +6 1011.9 1003.8 0
04 14.06 Ю 2 30 км н/о +8.4 +7.6 95 +7 +7 1012.2 1004.0
05 14.06 Ю 2 35 км н/о +9.3 +8.7 96 +8 +8 1012.5 1004.4
06 14.06 ЮЗ 3
{6}
50 км н/о +11.4 +10.0 91 +9 +9 1012.6 1004.5 +7.3 +16.5 0
07 14.06 ЮЗ 3 1300 м дымка н/о +13.5 +11.0 85 +12 +12 1012.9 1004.9
08 14.06 ЮЗ 3 30 км н/о +15.2 +10.4 73 +15 +15 1013.2 1005.2
09 14.06 ЮЗ 6
{9}
27 км н/о +16.5 +9.9 65 +15 +15 1012.9 1005.0 0
10 14.06 ЮЗ 3 27 км 8/8 1050 м
[]
+17.4 +10.3 63 +18 +20 1012.9 1005.0
11 14.06 ЮЗ 2 19 км 10/9 1110 м
[]
+18.3 +11.8 66 +19 +20 1013.1 1005.2
12 14.06 ЮЗ 4
{8}
60 км 10/10 1000 м
[]
+17.9 +10.3 61 +18 +18 1013.1 1005.2 0
13 14.06 Ю 3 60 км 9/1 1320 м
[]
+19.6 +10.0 54 +21 +28 комфорт 1012.9 1005.1
14 14.06 Ю 2 60 км н/о +19.8 +9.4 51 +22 +22 комфорт 1012.3 1004.5
15 14.06 Ю 6
{9}
60 км н/о +20.8 +8.1 44 +22 +22 комфорт 1012.0 1004.2 0
16 14.06 ЮЗ 2 60 км н/о +20.0 +8.0 46 +22 +22 комфорт 1011.5 1003.7
17 14.06 З 2 60 км н/о +20.2 +8.8 48 +22 +22 комфорт 1011.3 1003.5
18 14.06 С 5
{7}
55 км 8/8 1500 м
[]
+16.6 +9.8 64 +16 +16 1012.1 1004.2 +11.5 +21.3 0
19 14.06 С 1 55 км н/о +16.2 +10.3 68 +17 +17 1012.5 1004.6
20 14.06 СВ 1 55 км 9/9 2000 м
[]
+15.2 +10.8 75 +16 +16 1012.9 1004.9
21 14.06 СЗ 2
{4}
45 км 9/9 1500 м
[]
+13.5 +11.4 87 +13 +13 1013.2 1005.2 0
22 14.06 З 1 50 км 10/8 1230 м
[]
+13.7 +12.3 91 +14 +14 1013.2 1005.2
23 14.06 З 1 45 км 10/8 1080 м
[]
+13.1 +12.2 94 +13 +13 1013.3 1005.3
00 15.06 З 2
{3}
50 км 9/9 1000 м
[]
+12.5 +11.7 95 +11 +11 1013.3 1005.3 0
01 15.06 ЮЗ 1 26 км 9/3 1300 м
[]
+11.6 +10.7 94 +11 +11 1013.4 1005.3
02 15.06 ЮЗ 2 24 км н/о +10.9 +10.1 95 +10 +10 1013.6 1005.5
03 15.06 ЮЗ 3
{6}
25 км н/о +10.5 +9.4 93 +8 +8 1013.7 1005.6 0
04 15.06 ЮЗ 2 28 км н/о +9.6 +8.8 95 +8 +8 1014.0 1005.9
05 15.06 ЮЗ 2 19 км н/о +10.9 +9.8 93 +9 +9 1014.0 1005.9
06 15.06 ЮЗ 4
{6}
21 км 9/0 2000 м
[]
+13.4 +11.1 86 +12 +12 1014.3 1006.3 +9.4 +16.8 0
07 15.06 ЮЗ 2 50 км 9/9 2000 м
[]
+14.0 +11.3 84 +13 +14 1014.8 1006.8
08 15.06 ЮЗ 3 60 км 9/4 630 м
[]
+16.1 +11.3 73 +16 +18 1014.8 1006.9
09 15.06 ЮЗ 6
{9}
50 км 10/10 600 м
[]
+16.1 +10.4 69 +15 +15 1015.1 1007.1 0
10 15.06 ЮЗ 3 50 км 9/6 1000 м
[]
+16.4 +10.3 67 +16 +19 1015.1 1007.2
11 15.06 ЮЗ 3 45 км 9/6 1140 м
[]
+16.5 +9.9 65 +16 +20 1015.4 1007.5
12 15.06 ЮЗ 6
{9}
60 км 10/10 1500 м
[]
+17.8 +11.6 67 +17 +17 1015.6 1007.7 0
13 15.06 ЮЗ 3 60 км 10/3 960 м
[]
+17.3 +9.9 62 +17 +22 1015.5 1007.6
14 15.06 ЮЗ 2 55 км 10/6 1110 м
[]
+17.6 +11.2 66 +18 +21 1015.5 1007.6
15 15.06 Ю 5
{8}
45 км 10/10 1000 м
[]
+17.5 +10.6 64 +17 +17 1015.5 1007.6 0
16 15.06 ЮЗ 3 45 км 10/10 750 м
[]
+17.9 +11.7 67 +18 +18 1015.3 1007.4
17 15.06 Ю 3 30 км 10/8 540 м
[]
+15.8 +13.1 84 +15 +16 1015.9 1007.9 0.2
18 15.06 Ю 6
{13}
12 км н/о +16.5 +14.3 87 +15 +15 1015.9 1008.0 +13.3 +18.4 0.2 0
19 15.06 Ю 2 18 км 10/10 630 м
[]
+15.0 +13.9 93 +15 +15 1016.2 1008.2 0.2
20 15.06 ЮЗ 2 40 км н/о +14.3 +12.7 90 +14 +14 1016.4 1008.4
21 15.06 Ю 5
{8}
40 км 10/10 600 м
[]
+14.6 +12.8 89 +13 +13 1016.8 1008.8 0.2 0
22 15.06 ЮЗ 3 45 км н/о +14.4 +12.8 90 +14 +14 1017.1 1009.1
23 15.06 ЮЗ 3 30 км н/о +14.5 +12.7 89 +14 +14 1017.3 1009.3
00 16.06 ЮЗ 5
{9}
35 км 9/9 300 м
[]
+14.6 +12.3 86 +13 +13 1017.6 1009.6 0
01 16.06 ЮЗ 2 35 км н/о +13.2 +11.6 90 +12 +12 1018.1 1010.0
02 16.06 ЮЗ 2 35 км н/о +12.6 +11.2 91 +12 +12 1018.3 1010.2
03 16.06 ЮЗ 4
{6}
35 км н/о +12.8 +11.5 92 +11 +11 1018.2 1010.1 0
04 16.06 Ю 2 35 км н/о +12.2 +11.1 93 +11 +11 1018.5 1010.4
05 16.06 Ю 1 28 км 9/9 1020 м
[]
+13.1 +12.0 93 +13 +13 1018.9 1010.8
06 16.06 Ю 2
{4}
40 км 8/8 300 м
[]
+14.2 +12.6 90 +14 +14 1019.2 1011.2 +11.9 +16.7 0.2 0
07 16.06 ЮЗ 3 35 км 9/9 480 м
[]
+15.3 +12.6 84 +15 +15 1019.6 1011.6
08 16.06 ЮЗ 3 60 км 10/10 500 м
[]
+16.6 +13.9 84 +16 +16 1020.0 1012.0
09 16.06 ЮЗ 7
{12}
60 км 8/8 600 м
[]
+17.8 +12.7 72 +17 +18 1019.9 1012.0 0
10 16.06 ЮЗ 3 18 км 9/9 870 м
[]
+18.7 +12.4 67 +20 +21 1020.0 1012.1
11 16.06 ЮЗ 4 45 км 9/8 1050 м
[]
+18.8 +12.1 65 +20 +21 1020.1 1012.2
12 16.06 ЮЗ 5
{9}
50 км 10/10 1000 м
[]
+20.6 +13.8 65 +23 +23 комфорт 1020.1 1012.2 0
13 16.06 ЮЗ 3 40 км 10/6 1020 м
[]
+19.6 +12.8 65 +22 +25 комфорт 1020.2 1012.3
14 16.06 ЮЗ 2 30 км 10/3 1020 м
[]
+19.1 +13.5 70 +21 +27 комфорт 1020.3 1012.4 0.0
15 16.06 ЮЗ 3
{6}
40 км 10/10 1500 м
[]
+18.7 +13.1 70 +20 +20 1020.2 1012.3 0.0 0
16 16.06 ЮЗ 2 55 км 10/10 1500 м
[]
+18.9 +13.5 71 +21 +21 комфорт 1020.0 1012.1
17 16.06 ЮЗ 1 35 км 10/10 1500 м
[]
+19.2 +12.9 67 +22 +22 комфорт 1019.9 1012.0
18 16.06 ЮЗ 1
{2}
50 км 9/9 1000 м
[]
+20.0 +12.7 63 +23 +24 комфорт 1019.9 1012.0 +14.2 +20.7 0
19 16.06 З 1 35 км н/о +18.9 +14.0 73 +22 +22 комфорт 1019.9 1012.0
20 16.06 штиль 0 30 км н/о +16.3 +13.4 83 +16 +16 1020.0 1012.0
21 16.06 ЮЗ 2
{3}
28 км н/о +13.4 +11.3 87 +13 +13 1020.4 1012.3 0
22 16.06 З 2 29 км н/о +12.3 +10.7 90 +12 +12 1020.6 1012.5
23 16.06 З 1 25 км н/о +10.9 +10.0 94 +11 +11 1020.6 1012.5

 

Местоположение метеостанции Кан (Франция): широта 49.18 долгота -0.45 высота над уровнем моря 67 м.

В архиве по умолчанию представлена погода в Кане за последнюю неделю. Архивные данные за месяц целиком и за предыдущие месяцы, начиная с января 2011 года, Вы можете получить, выбрав интересующий диапазон дат из раскрывающегося списка и нажав кнопку "Ввод!".


*Определитесь, кто Вы:
робот инопланетянин человек

Внимание! Время в таблицах - всемирное. Для получения местного времени необходимо прибавить поправку, которая равна 1 ч.

Смотрите также архив погоды в соседних городах и на ближайших метеорологических станциях:

Погода в Порт-ан-Бессене (Франция) (30 км)
Погода в Довиле (Франция) (50 км)
Погода в Гавре (Франция) (52 км)
Погода в Гавр аэропорту (Франция) (55 км)
Погода в Барфлере (Франция) (83 км)
Погода в Мопертю-сюр-Мере (Франция) (91 км)
Погода в Вигите ду Аумет (Франция) (92 км)
Погода в Алансоне (Франция) (93 км)
Погода на Пуэнт-дю-Оке (Франция) (94 км)
Погода в Картере (Франция) (100 км)

Пояснения к столбцам:

Ветер - указаны скорость ветра в м/с - средняя за 10 мин, порывы в срок и между сроками (в фигурных скобках) и направление, откуда дует ветер: С - северный, СВ - северо-восточный, В - восточный, ЮВ - юго-восточный, Ю - южный, ЮЗ - юго-западный, З - западный, СЗ - северо-западный.
Видимость - горизонтальная дальность видимости в метрах или километрах. При видимости от 1 до 10 км при отсутствии осадков обычно наблюдается дымка, при ухудшении видимости до 1 км и менее - туман. В сухую погоду видимость может ухудшаться дымом, пылью или мглою.
Явления - указаны атмосферные явления, наблюдавшиеся в срок или в последний час перед сроком; фигурными скобками обозначены явления, наблюдавшиеся между сроками (за 1-3 часа до срока); квадратными скобками обозначены град или гололедные отложения с указанием их диаметра в мм.
Облачность - указаны через наклонную черту общая и нижняя облачность в баллах и высота нижней границы облаков в метрах; квадратными скобками обозначены формы облаков: Ci - перистые, Cs - перисто-слоистые, Cc - перисто-кучевые, Ac - высококучевые, As - высокослоистые, Sc - слоисто-кучевые, Ns - слоисто-дождевые, Cu - кучевые, Cb - кучево-дождевые. Подробнее классификацию облаков см. в Атласе облаков (PDF).
T - Температура воздуха - температура, измеренная на высоте 2 м над землей.
Td - Температура точки росы - температура, при понижении до которой содержащийся в воздухе водяной пар достигнет насыщения.
f - Относительная влажность воздуха - влажноcть воздуха, измеренная на высоте 2 м над землей.
Te - Эффективная температура - температура, которую ощущает одетый по сезону человек в тени. Характеристика душности погоды. При расчете учитывается влияние влажности воздуха и скорости ветра на теплоощущения человека.
Tes - Эффективная температура на солнце - температура, которую ощущает человек, с поправкой на солнечный нагрев. Характеристика знойности погоды. Зависит от высоты солнца над горизонтом, облачности и скорости ветра. Ночью, в пасмурную погоду, а также при ветре 12 м/с и более поправка равна нулю.
P - Атмосферное давление - приведенное к уровню моря атмосферное давление.
Po - Атмосферное давление - измеренное на уровне метеостанции атмосферное давление.
Tmin - Минимальная температура - минимум температуры воздуха на высоте 2 м над землей.
Tmax - Максимальная температура - максимум температуры воздуха на высоте 2 м над землей.
R - Количество осадков - Количество выпавших осадков за период времени, мм. При наведении курсора мыши на число - период времени, за который выпало указанное количество осадков.
R24 - Количество осадков - Количество выпавших осадков за 24 часа, мм.
S - Снежный покров - Высота снежного покрова, см. При наведении курсора мыши на число - состояние снежного покрова и степень покрытия местности в баллах.